User: anonymous   Login
Location: Unspecified
(0.0000°N, 0.0000°E)
Time: 14:01:13
(UTC+00:00)
Language:

Envisat - Orbit

View from above orbital plane
View from above orbital plane
View from above satellite
View from above satellite

Ground track
Ground track

The orbit data is extracted from the following two-line orbital elements,

1 27386U 02009A   21101.99063840  .00000015  00000-0  18420-4 0  9996
2 27386  98.1477  99.4472 0001381  88.2693 294.3365 14.38020438  1521
Epoch (UTC): 11 April 2021 23:46:31
Eccentricity: 0.0001381
inclination: 98.1477°
perigee height: 764 km
apogee height: 766 km
right ascension of ascending node: 99.4472°
argument of perigee: 88.2693°
revolutions per day: 14.38020438
mean anomaly at epoch: 294.3365°
orbit number at epoch: 152

The dashed part of the orbit path shows where the satellite is in the earth's shadow,  

DLR